| time (UTC) | temp F | wind direction | speed knots | gust knots | rain 1hr in | rain 24hr in | rain mn in | humidity % | barometer mb |
| 20260505201352 | 47 | 140 | 0.0 | 1.7 | 0.00 | 0.45 | 0.45 | 90 | 1011.2 |
| 20260505200845 | 48 | 52 | 0.9 | 1.7 | 0.00 | 0.45 | 0.45 | 86 | 1011.4 |
| 20260505200337 | 48 | 24 | 2.6 | 2.6 | 0.00 | 0.45 | 0.45 | 86 | 1011.0 |
| 20260505195829 | 48 | 353 | 0.9 | 3.5 | 0.00 | 0.45 | 0.45 | 85 | 1010.5 |
| 20260505195322 | 47 | 311 | 3.5 | 4.3 | 0.00 | 0.45 | 0.45 | 88 | 1010.7 |
| 20260505194814 | 47 | 92 | 2.6 | 2.6 | 0.00 | 0.45 | 0.45 | 90 | 1011.1 |
| 20260505194307 | 47 | 354 | 0.0 | 0.9 | 0.00 | 0.45 | 0.45 | 92 | 1011.3 |
| 20260505193759 | 47 | 19 | 0.9 | 1.7 | 0.00 | 0.45 | 0.45 | 91 | 1011.2 |
| 20260505193251 | 47 | 314 | 3.5 | 3.5 | 0.00 | 0.45 | 0.45 | 91 | 1010.9 |
| 20260505192743 | 47 | 254 | 0.0 | 2.6 | 0.00 | 0.45 | 0.45 | 93 | 1011.0 |
| 20260505192235 | 47 | 224 | 1.7 | 5.2 | 0.00 | 0.45 | 0.45 | 92 | 1010.6 |
| 20260505191728 | 47 | 220 | 3.5 | 3.5 | 0.00 | 0.45 | 0.45 | 92 | 1010.6 |
| 20260505191221 | 47 | 126 | 2.6 | 3.5 | 0.00 | 0.45 | 0.45 | 91 | 1010.8 |
| 20260505190713 | 47 | 32 | 3.5 | 3.5 | 0.00 | 0.45 | 0.45 | 90 | 1010.7 |
| 20260505190205 | 48 | 35 | 1.7 | 2.6 | 0.00 | 0.45 | 0.45 | 89 | 1010.8 |
| 20260505185658 | 48 | 8 | 1.7 | 2.6 | 0.00 | 0.45 | 0.45 | 92 | 1010.5 |
| 20260505185150 | 48 | 152 | 1.7 | 1.7 | 0.00 | 0.45 | 0.45 | 93 | 1010.3 |
| 20260505184642 | 48 | 11 | 0.0 | 1.7 | 0.00 | 0.45 | 0.45 | 92 | 1010.4 |
| 20260505184135 | 48 | 319 | 1.7 | 1.7 | 0.00 | 0.45 | 0.45 | 91 | 1010.3 |
| 20260505183627 | 49 | 325 | 0.0 | 1.7 | 0.00 | 0.45 | 0.45 | 91 | 1010.3 |
| 20260505183121 | 49 | 49 | 0.0 | 0.9 | 0.00 | 0.45 | 0.45 | 89 | 1010.4 |
| 20260505182612 | 49 | 19 | 0.0 | 1.7 | 0.00 | 0.45 | 0.45 | 88 | 1010.6 |
| 20260505182105 | 49 | 201 | 0.0 | 1.7 | 0.00 | 0.45 | 0.45 | 86 | 1010.6 |
| 20260505181558 | 50 | 143 | 0.0 | 4.3 | 0.00 | 0.45 | 0.45 | 85 | 1010.3 |
| 20260505181050 | 49 | 41 | 3.5 | 4.3 | 0.00 | 0.45 | 0.45 | 88 | 1010.4 |
| 20260505180542 | 50 | 319 | 1.7 | 2.6 | 0.00 | 0.45 | 0.45 | 86 | 1010.8 |
| 20260505180037 | 50 | 215 | 1.7 | 4.3 | 0.00 | 0.45 | 0.45 | 83 | 1010.6 |
| 20260505175528 | 50 | 150 | 0.0 | 1.7 | 0.00 | 0.45 | 0.45 | 84 | 1010.4 |
| 20260505175020 | 50 | 202 | 0.0 | 3.5 | 0.00 | 0.45 | 0.45 | 83 | 1009.8 |
| 20260505174512 | 50 | 50 | 1.7 | 4.3 | 0.00 | 0.45 | 0.45 | 85 | 1010.5 |
| 20260505174005 | 50 | 259 | 1.7 | 4.3 | 0.00 | 0.45 | 0.45 | 83 | 1010.6 |
| 20260505173458 | 49 | 14 | 3.5 | 5.2 | 0.00 | 0.45 | 0.45 | 83 | 1010.4 |
| 20260505172950 | 49 | 77 | 3.5 | 6.1 | 0.00 | 0.45 | 0.45 | 84 | 1010.2 |
| 20260505172442 | 49 | 55 | 2.6 | 2.6 | 0.00 | 0.45 | 0.45 | 85 | 1010.5 |
| 20260505171428 | 49 | 167 | 2.6 | 2.6 | 0.00 | 0.45 | 0.45 | 84 | 1010.7 |
| 20260505170920 | 49 | 344 | 3.5 | 5.2 | 0.01 | 0.45 | 0.45 | 82 | 1010.4 |
| 20260505170413 | 49 | 0 | 2.6 | 3.5 | 0.02 | 0.45 | 0.45 | 87 | 1010.3 |
| 20260505165906 | 49 | 11 | 1.7 | 6.1 | 0.03 | 0.45 | 0.45 | 86 | 1010.2 |
| 20260505164851 | 48 | 345 | 0.0 | 2.6 | 0.05 | 0.45 | 0.45 | 88 | 1010.4 |
| 20260505164343 | 48 | 14 | 2.6 | 3.5 | 0.07 | 0.45 | 0.45 | 85 | 1010.1 |
| 20260505163836 | 48 | 46 | 2.6 | 5.2 | 0.07 | 0.45 | 0.45 | 86 | 1010.3 |
| 20260505163328 | 48 | 9 | 1.7 | 3.5 | 0.07 | 0.45 | 0.45 | 86 | 1010.3 |
| 20260505162821 | 48 | 323 | 3.5 | 7.0 | 0.07 | 0.45 | 0.45 | 85 | 1010.5 |
| 20260505162314 | 48 | 322 | 1.7 | 5.2 | 0.07 | 0.45 | 0.45 | 85 | 1010.7 |
| 20260505161806 | 48 | 213 | 1.7 | 7.8 | 0.07 | 0.45 | 0.45 | 86 | 1010.6 |
| 20260505161259 | 48 | 332 | 3.5 | 6.1 | 0.07 | 0.45 | 0.45 | 86 | 1010.8 |
| 20260505160751 | 47 | 51 | 1.7 | 8.7 | 0.06 | 0.45 | 0.45 | 89 | 1010.5 |
| 20260505160243 | 47 | 308 | 1.7 | 7.0 | 0.05 | 0.43 | 0.43 | 89 | 1010.5 |
| 20260505153157 | 52 | 224 | 7.8 | 11.3 | 0.00 | 0.38 | 0.38 | 75 | 1010.9 |
| 20260505152650 | 52 | 18 | 2.6 | 2.6 | 0.00 | 0.38 | 0.38 | 88 | 1010.7 |
| 20260505152143 | 52 | 230 | 2.6 | 11.3 | 0.00 | 0.38 | 0.38 | 87 | 1010.8 |
| 20260505151635 | 53 | 217 | 5.2 | 7.0 | 0.00 | 0.38 | 0.38 | 86 | 1010.6 |
| 20260505151128 | 53 | 230 | 5.2 | 15.6 | 0.00 | 0.38 | 0.38 | 85 | 1010.8 |
| 20260505150113 | 53 | 214 | 5.2 | 13.0 | 0.00 | 0.38 | 0.38 | 85 | 1010.1 |
| 20260505140450 | 53 | 219 | 3.5 | 13.0 | 0.00 | 0.38 | 0.38 | 85 | 1010.4 |
| 20260505124756 | 51 | 193 | 7.0 | 7.0 | 0.02 | 0.38 | 0.38 | 93 | 1010.7 |
| 20260505124249 | 51 | 191 | 5.2 | 6.1 | 0.03 | 0.38 | 0.38 | 92 | 1010.8 |
| 20260505123741 | 51 | 141 | 1.7 | 5.2 | 0.04 | 0.38 | 0.38 | 92 | 1010.6 |
| 20260505123233 | 51 | 170 | 3.5 | 5.2 | 0.06 | 0.38 | 0.38 | 93 | 1010.6 |
| 20260505122726 | 51 | 198 | 0.9 | 4.3 | 0.07 | 0.38 | 0.38 | 94 | 1010.8 |
| 20260505122218 | 50 | 183 | 2.6 | 4.3 | 0.09 | 0.38 | 0.38 | 93 | 1010.9 |
| 20260505121203 | 50 | 120 | 2.6 | 3.5 | 0.10 | 0.38 | 0.38 | 93 | 1010.7 |
| 20260505120149 | 49 | 198 | 3.5 | 5.2 | 0.11 | 0.38 | 0.38 | 95 | 1010.5 |
| 20260505115134 | 49 | 172 | 2.6 | 5.2 | 0.10 | 0.37 | 0.37 | 95 | 1010.8 |
| 20260505114627 | 49 | 163 | 1.7 | 3.5 | 0.10 | 0.37 | 0.37 | 95 | 1010.8 |
| 20260505114120 | 49 | 206 | 1.7 | 4.3 | 0.09 | 0.35 | 0.35 | 95 | 1011.0 |
| 20260505113105 | 49 | 217 | 0.9 | 4.3 | 0.06 | 0.32 | 0.32 | 94 | 1010.6 |
| 20260505112557 | 49 | 192 | 2.6 | 7.8 | 0.05 | 0.31 | 0.31 | 94 | 1010.6 |
| 20260505112049 | 49 | 225 | 2.6 | 8.7 | 0.03 | 0.29 | 0.29 | 94 | 1011.1 |
| 20260505111541 | 50 | 236 | 8.7 | 10.4 | 0.03 | 0.29 | 0.29 | 93 | 1010.9 |
| 20260505111033 | 50 | 198 | 9.6 | 13.9 | 0.02 | 0.28 | 0.28 | 92 | 1011.2 |
| 20260505101919 | 51 | 143 | 3.5 | 7.0 | 0.00 | 0.26 | 0.26 | 91 | 1010.7 |
| 20260505100904 | 52 | 174 | 2.6 | 4.3 | 0.00 | 0.26 | 0.26 | 89 | 1010.6 |
| 20260505100356 | 52 | 138 | 4.3 | 5.2 | 0.00 | 0.26 | 0.26 | 89 | 1010.6 |
| 20260505095849 | 52 | 206 | 6.1 | 7.8 | 0.00 | 0.26 | 0.26 | 88 | 1010.2 |
| 20260505095341 | 52 | 172 | 2.6 | 7.0 | 0.00 | 0.26 | 0.26 | 88 | 1010.6 |
| 20260505094833 | 51 | 184 | 3.5 | 7.0 | 0.00 | 0.26 | 0.26 | 88 | 1010.7 |
| 20260505094326 | 51 | 172 | 3.5 | 5.2 | 0.00 | 0.26 | 0.26 | 87 | 1010.9 |
| 20260505093818 | 51 | 180 | 3.5 | 5.2 | 0.00 | 0.26 | 0.26 | 87 | 1010.7 |
| 20260505092804 | 51 | 187 | 2.6 | 3.5 | 0.00 | 0.26 | 0.26 | 91 | 1010.6 |
| 20260505092256 | 51 | 142 | 2.6 | 4.3 | 0.00 | 0.26 | 0.26 | 87 | 1011.0 |
| 20260505091241 | 51 | 127 | 1.7 | 3.5 | 0.00 | 0.26 | 0.26 | 89 | 1011.1 |
| 20260505090733 | 51 | 139 | 2.6 | 3.5 | 0.00 | 0.26 | 0.26 | 86 | 1010.7 |
| 20260505085717 | 51 | 224 | 0.0 | 1.7 | 0.00 | 0.26 | 0.26 | 79 | 1010.8 |
| 20260505085210 | 51 | 99 | 0.0 | 1.7 | 0.00 | 0.26 | 0.26 | 85 | 1010.9 |
| 20260505084702 | 50 | 62 | 0.0 | 3.5 | 0.00 | 0.26 | 0.26 | 88 | 1010.3 |
| 20260505084154 | 50 | 106 | 2.6 | 3.5 | 0.00 | 0.26 | 0.26 | 88 | 1010.6 |
| 20260505083646 | 50 | 174 | 0.0 | 2.6 | 0.00 | 0.26 | 0.26 | 88 | 1011.1 |
| 20260505083138 | 50 | 162 | 0.9 | 3.5 | 0.00 | 0.26 | 0.26 | 85 | 1010.8 |
| 20260505082631 | 49 | 194 | 1.7 | 2.6 | 0.00 | 0.26 | 0.26 | 84 | 1010.9 |
| 20260505082123 | 49 | 124 | 1.7 | 3.5 | 0.00 | 0.26 | 0.26 | 84 | 1011.0 |
| 20260505081615 | 48 | 24 | 0.9 | 1.7 | 0.00 | 0.26 | 0.26 | 87 | 1010.7 |
| 20260505081108 | 48 | 6 | 1.7 | 3.5 | 0.00 | 0.26 | 0.26 | 91 | 1010.5 |
| 20260505080600 | 48 | 301 | 0.0 | 1.7 | 0.00 | 0.26 | 0.26 | 92 | 1010.4 |
| 20260505080053 | 48 | 51 | 1.7 | 1.7 | 0.00 | 0.26 | 0.26 | 88 | 1010.4 |
| 20260505075545 | 48 | 346 | 1.7 | 2.6 | 0.00 | 0.26 | 0.26 | 89 | 1010.8 |
| 20260505075037 | 48 | 191 | 1.7 | 1.7 | 0.00 | 0.26 | 0.26 | 89 | 1010.8 |
| 20260505074530 | 48 | 46 | 0.0 | 1.7 | 0.00 | 0.26 | 0.26 | 88 | 1010.7 |
| 20260505074023 | 48 | 306 | 0.9 | 2.6 | 0.00 | 0.26 | 0.26 | 90 | 1010.7 |
| 20260505073515 | 48 | 106 | 0.0 | 1.7 | 0.00 | 0.26 | 0.26 | 92 | 1010.8 |
| 20260505073007 | 48 | 11 | 0.9 | 1.7 | 0.00 | 0.26 | 0.26 | 93 | 1010.7 |
| 20260505071952 | 48 | 359 | 0.9 | 1.7 | 0.00 | 0.26 | 0.26 | 93 | 1010.7 |
| 20260505070937 | 48 | 34 | 0.0 | 1.7 | 0.00 | 0.26 | 0.26 | 92 | 1010.8 |
| 20260505070430 | 47 | 26 | 0.0 | 1.7 | 0.00 | 0.26 | 0.26 | 93 | 1010.7 |
| 20260505065415 | 47 | 155 | 1.7 | 2.6 | 0.00 | 0.26 | 0.26 | 90 | 1010.6 |
| 20260505064401 | 47 | 131 | 0.0 | 1.7 | 0.00 | 0.26 | 0.26 | 96 | 1010.7 |
| 20260505063853 | 46 | 236 | 1.7 | 1.7 | 0.01 | 0.26 | 0.26 | 97 | 1010.9 |
| 20260505062838 | 46 | 108 | 0.0 | 0.9 | 0.02 | 0.26 | 0.26 | 98 | 1011.1 |
| 20260505062331 | 46 | 34 | 0.0 | 1.7 | 0.02 | 0.26 | 0.26 | 98 | 1011.1 |
| 20260505061823 | 46 | 23 | 0.9 | 2.6 | 0.02 | 0.26 | 0.26 | 98 | 1011.0 |
| 20260505061315 | 46 | 27 | 0.0 | 2.6 | 0.02 | 0.26 | 0.26 | 98 | 1011.4 |
| 20260505060808 | 46 | 70 | 1.7 | 1.7 | 0.03 | 0.26 | 0.26 | 98 | 1011.3 |
| 20260505060300 | 46 | 11 | 0.9 | 1.7 | 0.03 | 0.26 | 0.26 | 98 | 1011.6 |
| 20260505055752 | 46 | 100 | 2.6 | 3.5 | 0.04 | 0.26 | 0.26 | 98 | 1011.6 |
| 20260505055244 | 46 | 86 | 0.9 | 2.6 | 0.04 | 0.26 | 0.26 | 98 | 1011.5 |
| 20260505054737 | 46 | 111 | 0.9 | 2.6 | 0.05 | 0.26 | 0.26 | 98 | 1011.8 |
| 20260505054229 | 46 | 70 | 1.7 | 4.3 | 0.05 | 0.25 | 0.25 | 98 | 1011.4 |
| 20260505053721 | 46 | 59 | 2.6 | 4.3 | 0.04 | 0.25 | 0.25 | 98 | 1011.2 |
| 20260505052707 | 46 | 341 | 1.7 | 2.6 | 0.04 | 0.24 | 0.24 | 98 | 1011.4 |
| 20260505051652 | 46 | 113 | 0.9 | 2.6 | 0.05 | 0.24 | 0.24 | 98 | 1011.4 |
| 20260505050130 | 46 | 188 | 3.5 | 4.3 | 0.04 | 0.22 | 0.22 | 98 | 1011.7 |
| 20260505041522 | 46 | 220 | 1.7 | 3.5 | 0.03 | 0.19 | 0.19 | 97 | 1011.8 |
| 20260505040508 | 46 | 129 | 0.9 | 2.6 | 0.03 | 0.18 | 0.18 | 97 | 1011.4 |
| 20260505040000 | 46 | 96 | 1.7 | 3.5 | 0.04 | 0.18 | 0.18 | 97 | 1011.4 |
| 20260505034945 | 46 | 63 | 1.7 | 3.5 | 0.05 | 0.18 | 0.18 | 96 | 1011.3 |
| 20260505034438 | 47 | 31 | 1.7 | 2.6 | 0.05 | 0.17 | 0.17 | 96 | 1011.4 |
| 20260505033930 | 47 | 359 | 0.9 | 2.6 | 0.06 | 0.16 | 0.16 | 96 | 1011.5 |
| 20260505033422 | 46 | 248 | 0.0 | 1.7 | 0.06 | 0.16 | 0.16 | 97 | 1012.0 |
| 20260505032915 | 47 | 326 | 0.9 | 2.6 | 0.07 | 0.16 | 0.16 | 97 | 1011.9 |
| 20260505032407 | 47 | 345 | 1.7 | 2.6 | 0.07 | 0.16 | 0.16 | 97 | 1012.0 |
| 20260505031900 | 47 | 316 | 0.9 | 2.6 | 0.07 | 0.16 | 0.16 | 96 | 1011.8 |
| 20260505031351 | 47 | 273 | 0.9 | 2.6 | 0.08 | 0.15 | 0.15 | 96 | 1012.1 |
| 20260505030844 | 47 | 324 | 1.7 | 3.5 | 0.09 | 0.15 | 0.15 | 97 | 1012.0 |
| 20260505030336 | 47 | 339 | 1.7 | 2.6 | 0.09 | 0.15 | 0.15 | 97 | 1012.3 |
| 20260505025828 | 47 | 37 | 0.9 | 3.5 | 0.09 | 0.14 | 0.14 | 97 | 1012.2 |
| 20260505025321 | 47 | 62 | 1.7 | 2.6 | 0.09 | 0.13 | 0.13 | 96 | 1012.0 |
| 20260505024813 | 47 | 134 | 1.7 | 3.5 | 0.08 | 0.13 | 0.13 | 96 | 1012.0 |
| 20260505024305 | 47 | 324 | 1.7 | 3.5 | 0.08 | 0.12 | 0.12 | 96 | 1012.0 |
| 20260505023758 | 47 | 21 | 1.7 | 3.5 | 0.08 | 0.11 | 0.11 | 96 | 1012.0 |
| 20260505023250 | 47 | 310 | 1.7 | 2.6 | 0.07 | 0.10 | 0.10 | 96 | 1012.2 |
| 20260505022743 | 47 | 24 | 0.9 | 3.5 | 0.07 | 0.09 | 0.09 | 96 | 1012.0 |
| 20260505022235 | 47 | 17 | 1.7 | 2.6 | 0.07 | 0.09 | 0.09 | 96 | 1012.2 |
| 20260505021727 | 47 | 13 | 1.7 | 3.5 | 0.07 | 0.08 | 0.08 | 96 | 1012.3 |
| 20260505021220 | 47 | 24 | 0.9 | 1.7 | 0.07 | 0.08 | 0.08 | 95 | 1012.4 |
| 20260505020712 | 47 | 355 | 0.9 | 1.7 | 0.06 | 0.07 | 0.07 | 95 | 1012.7 |
| 20260505020204 | 47 | 62 | 0.0 | 1.7 | 0.06 | 0.06 | 0.06 | 95 | 1012.6 |
| 20260505015657 | 47 | 157 | 0.0 | 0.9 | 0.06 | 0.06 | 0.06 | 95 | 1012.5 |
| 20260505015149 | 47 | 297 | 0.0 | 0.0 | 0.05 | 0.05 | 0.05 | 95 | 1012.5 |
| 20260505014641 | 47 | 345 | 0.0 | 1.7 | 0.04 | 0.04 | 0.04 | 95 | 1012.8 |
| 20260505014134 | 47 | 344 | 0.0 | 1.7 | 0.04 | 0.04 | 0.04 | 94 | 1012.9 |
| 20260505013626 | 47 | 335 | 1.7 | 1.7 | 0.03 | 0.03 | 0.03 | 95 | 1012.8 |
| 20260505013118 | 47 | 326 | 0.0 | 1.7 | 0.03 | 0.03 | 0.03 | 94 | 1013.0 |
| 20260505012611 | 47 | 321 | 0.9 | 2.6 | 0.02 | 0.02 | 0.02 | 94 | 1012.8 |
| 20260505012103 | 47 | 326 | 0.0 | 1.7 | 0.02 | 0.02 | 0.02 | 94 | 1012.9 |
| 20260505011556 | 47 | 337 | 0.9 | 2.6 | 0.02 | 0.02 | 0.02 | 94 | 1012.9 |
| 20260505011049 | 47 | 331 | 1.7 | 1.7 | 0.01 | 0.01 | 0.01 | 94 | 1013.0 |
| 20260505010541 | 47 | 329 | 0.0 | 1.7 | 0.00 | 0.00 | 0.00 | 94 | 1013.0 |
| 20260505010033 | 47 | 324 | 0.0 | 1.7 | 0.00 | 0.00 | 0.00 | 94 | 1012.5 |
| 20260505005526 | 46 | 351 | 0.9 | 1.7 | 0.00 | 0.00 | 0.00 | 95 | 1012.6 |
| 20260505005018 | 46 | 336 | 0.0 | 0.0 | 0.00 | 0.00 | 0.00 | 95 | 1012.7 |
| 20260505004511 | 46 | 354 | 0.9 | 1.7 | 0.00 | 0.00 | 0.00 | 96 | 1012.9 |
| 20260505004004 | 46 | 116 | 0.0 | 0.9 | 0.00 | 0.00 | 0.00 | 97 | 1013.0 |
| 20260505002950 | 46 | 76 | 0.9 | 1.7 | 0.00 | 0.00 | 0.00 | 97 | 1012.6 |
| 20260505001432 | 46 | 34 | 2.6 | 3.5 | 0.00 | 0.00 | 0.00 | 97 | 1012.9 |
| 20260505000924 | 46 | 50 | 1.7 | 2.6 | 0.00 | 0.00 | 0.00 | 97 | 1012.7 |
| 20260504233850 | 46 | 340 | 1.7 | 1.7 | 0.00 | 0.00 | 0.00 | 97 | 1012.9 |
| 20260504232836 | 46 | 83 | 0.0 | 1.7 | 0.00 | 0.00 | 0.00 | 97 | 1013.3 |
| 20260504232329 | 46 | 71 | 1.7 | 1.7 | 0.00 | 0.00 | 0.00 | 97 | 1013.2 |
| 20260504231821 | 46 | 309 | 0.0 | 0.9 | 0.00 | 0.00 | 0.00 | 97 | 1013.3 |
| 20260504231313 | 46 | 35 | 1.7 | 1.7 | 0.00 | 0.00 | 0.00 | 97 | 1013.2 |
| 20260504230805 | 46 | 52 | 2.6 | 3.5 | 0.00 | 0.00 | 0.00 | 97 | 1013.3 |
| 20260504230258 | 46 | 65 | 1.7 | 2.6 | 0.00 | 0.00 | 0.00 | 97 | 1013.2 |
| 20260504225750 | 46 | 75 | 2.6 | 2.6 | 0.00 | 0.00 | 0.00 | 96 | 1013.2 |
| 20260504225242 | 46 | 57 | 2.6 | 3.5 | 0.00 | 0.00 | 0.00 | 96 | 1013.4 |
| 20260504224734 | 46 | 81 | 2.6 | 3.5 | 0.00 | 0.00 | 0.00 | 96 | 1013.4 |
| 20260504224227 | 46 | 99 | 1.7 | 1.7 | 0.00 | 0.00 | 0.00 | 96 | 1013.6 |
| 20260504223719 | 46 | 81 | 2.6 | 2.6 | 0.00 | 0.00 | 0.00 | 95 | 1013.3 |
| 20260504222704 | 48 | 44 | 0.0 | 2.6 | 0.00 | 0.00 | 0.00 | 86 | 1013.3 |
| 20260504222156 | 48 | 358 | 1.7 | 2.6 | 0.00 | 0.00 | 0.00 | 88 | 1013.0 |
| 20260504221649 | 48 | 354 | 1.7 | 1.7 | 0.00 | 0.00 | 0.00 | 88 | 1013.2 |
| 20260504221142 | 48 | 2 | 1.7 | 1.7 | 0.00 | 0.00 | 0.00 | 87 | 1013.5 |
| 20260504220634 | 48 | 357 | 1.7 | 1.7 | 0.00 | 0.00 | 0.00 | 88 | 1013.6 |
| 20260504220127 | 48 | 349 | 1.7 | 2.6 | 0.00 | 0.00 | 0.00 | 88 | 1013.4 |
| 20260504215620 | 48 | 6 | 1.7 | 1.7 | 0.00 | 0.27 | 0.27 | 89 | 1013.7 |
| 20260504215112 | 48 | 24 | 0.9 | 0.9 | 0.00 | 0.27 | 0.27 | 89 | 1013.7 |
| 20260504214604 | 48 | 332 | 1.7 | 2.6 | 0.00 | 0.27 | 0.27 | 88 | 1013.9 |
| 20260504214057 | 48 | 347 | 0.0 | 2.6 | 0.00 | 0.27 | 0.27 | 89 | 1013.7 |
| 20260504213550 | 48 | 343 | 1.7 | 1.7 | 0.00 | 0.27 | 0.27 | 89 | 1013.8 |
| 20260504213042 | 47 | 14 | 0.9 | 1.7 | 0.00 | 0.27 | 0.27 | 91 | 1013.6 |
| 20260504212535 | 47 | 329 | 2.6 | 3.5 | 0.00 | 0.27 | 0.27 | 89 | 1013.5 |
| 20260504212027 | 46 | 337 | 2.6 | 3.5 | 0.00 | 0.27 | 0.27 | 91 | 1013.6 |
| 20260504211520 | 46 | 340 | 2.6 | 3.5 | 0.00 | 0.27 | 0.27 | 93 | 1013.5 |
| 20260504211011 | 46 | 344 | 1.7 | 2.6 | 0.00 | 0.27 | 0.27 | 95 | 1013.9 |
| 20260504205956 | 46 | 1 | 1.7 | 1.7 | 0.00 | 0.27 | 0.27 | 96 | 1014.1 |
| 20260504205449 | 45 | 25 | 1.7 | 2.6 | 0.00 | 0.27 | 0.27 | 95 | 1014.3 |
| 20260504204941 | 46 | 27 | 3.5 | 4.3 | 0.00 | 0.27 | 0.27 | 95 | 1014.0 |
| 20260504204433 | 46 | 84 | 1.7 | 1.7 | 0.00 | 0.27 | 0.27 | 95 | 1013.9 |
| 20260504203925 | 46 | 326 | 1.7 | 1.7 | 0.00 | 0.27 | 0.27 | 94 | 1014.1 |
| 20260504203418 | 46 | 44 | 3.5 | 3.5 | 0.00 | 0.27 | 0.27 | 93 | 1014.0 |
| 20260504202910 | 47 | 24 | 2.6 | 4.3 | 0.00 | 0.27 | 0.27 | 91 | 1013.9 |
| 20260504202402 | 46 | 253 | 0.0 | 1.7 | 0.00 | 0.27 | 0.27 | 94 | 1014.2 |
| 20260504201854 | 46 | 327 | 1.7 | 2.6 | 0.00 | 0.27 | 0.27 | 94 | 1014.2 |